TimeMDT,TemperatureF,Dew PointF,Humidity,Sea Level PressureIn,VisibilityMPH,Wind Direction,Wind SpeedMPH,Gust SpeedMPH,PrecipitationIn,Events,Conditions,WindDirDegrees,DateUTC
12:53 AM,26.1,10.9,53,29.98,10.0,South,3.5,-,N/A,,Clear,190,2013-04-11 06:53:00
1:53 AM,24.1,10.0,55,29.95,10.0,Calm,Calm,-,N/A,,Clear,0,2013-04-11 07:53:00
2:53 AM,23.0,10.9,60,29.90,10.0,SW,11.5,-,N/A,,Clear,230,2013-04-11 08:53:00
3:53 AM,21.0,9.0,60,29.85,10.0,SW,8.1,-,N/A,,Clear,230,2013-04-11 09:53:00
4:53 AM,23.0,10.0,58,29.81,10.0,SW,11.5,-,N/A,,Clear,220,2013-04-11 10:53:00
5:53 AM,19.0,9.0,65,29.83,10.0,WSW,6.9,-,N/A,,Clear,250,2013-04-11 11:53:00
6:53 AM,19.0,9.0,65,29.84,10.0,West,4.6,-,N/A,,Partly Cloudy,260,2013-04-11 12:53:00
7:53 AM,26.1,12.9,58,29.82,10.0,WSW,8.1,-,N/A,,Overcast,250,2013-04-11 13:53:00
8:53 AM,30.9,14.0,50,29.81,10.0,West,9.2,-,N/A,,Overcast,270,2013-04-11 14:53:00
9:53 AM,39.9,17.1,40,29.78,10.0,West,10.4,-,N/A,,Partly Cloudy,260,2013-04-11 15:53:00
11:53 AM,60.1,15.1,17,29.71,10.0,Calm,Calm,-,N/A,,Overcast,0,2013-04-11 17:53:00
12:53 PM,62.1,23.0,22,29.69,10.0,NNE,17.3,28.8,N/A,,Scattered Clouds,30,2013-04-11 18:53:00
1:53 PM,63.0,27.0,26,29.70,10.0,NNE,27.6,34.5,N/A,,Partly Cloudy,20,2013-04-11 19:53:00
2:53 PM,61.0,27.0,27,29.71,10.0,NNE,23.0,29.9,N/A,,Overcast,30,2013-04-11 20:53:00
3:53 PM,60.1,28.0,30,29.73,10.0,NNE,24.2,31.1,N/A,,Mostly Cloudy,30,2013-04-11 21:53:00
4:53 PM,57.9,28.0,32,29.74,10.0,NNE,21.9,28.8,N/A,,Mostly Cloudy,30,2013-04-11 22:53:00
5:53 PM,57.9,28.9,33,29.77,10.0,NNE,19.6,26.5,N/A,,Clear,30,2013-04-11 23:53:00
6:53 PM,54.0,28.0,37,29.80,10.0,NNE,13.8,-,N/A,,Mostly Cloudy,30,2013-04-12 00:53:00
7:53 PM,48.0,27.0,44,29.82,10.0,ENE,9.2,-,N/A,,Partly Cloudy,60,2013-04-12 01:53:00
8:53 PM,45.0,26.1,48,29.86,10.0,NE,6.9,-,N/A,,Scattered Clouds,40,2013-04-12 02:53:00
9:53 PM,44.1,27.0,51,29.87,10.0,ENE,5.8,-,N/A,,Scattered Clouds,60,2013-04-12 03:53:00
10:53 PM,44.1,27.0,51,29.86,10.0,ENE,6.9,-,N/A,,Overcast,70,2013-04-12 04:53:00
11:53 PM,45.0,28.0,52,29.85,10.0,SE,4.6,-,N/A,,Overcast,130,2013-04-12 05:53:00